#timestamp,LO_Frequency,Hit,StdDev 
1556740815.3,286046998.4,N
1556740835.1,286046998.1,N
1556740855.9,286047000.9,N
1556740875.7,286047001.2,N
1556740895.5,286047001.4,N
1556740915.4,286047000.3,N
1556740935.2,286046998.2,N
1556740955.1,286046999.2,N
1556740956.0,286046999.2,N
1556740975.8,286046999.5,N
1556740995.6,286046998.7,N
1556741015.5,286046998.2,N
1556741035.3,286047000.4,N
1556741055.1,286047000.0,N
1556741075.9,286047000.5,N
1556741095.7,286046999.8,N
1556741115.6,286047000.0,N
1556741135.4,286046998.8,N
1556741155.2,286046998.8,N
1556741175.1,286047002.3,N
1556741176.0,286047002.3,N
1556741195.8,286047001.6,N
1556741215.7,286047002.5,N
1556741235.5,286047001.3,N
1556741255.3,286047001.8,N
1556741275.2,286047002.3,N
1556741295.0,286047001.9,N
1556741295.9,286047001.9,N
1556741315.7,286047004.1,N
1556741335.6,286047003.8,N
1556741355.4,286047003.7,N
1556741375.3,286047003.4,N
1556741395.1,286047002.0,N
1556741396.0,286047002.0,N
1556741415.8,286046999.7,N
1556741435.7,286047000.0,N
1556741455.5,286047000.6,N
1556741475.3,286047000.0,N
1556741495.2,286047002.2,N
1556741515.0,286047002.0,N
1556741515.9,286047002.0,N
1556741535.8,286046998.3,N
1556741555.6,286047000.8,N
1556741575.4,286047001.2,N
1556741595.3,286047002.0,N
1556741615.1,286046999.8,N
1556741635.8,286047002.8,N
1556741655.7,286047000.1,N
1556741675.5,286047002.4,N
1556741695.4,286047004.0,Y
1556741715.2,286046999.8,P
1556741735.0,286047001.2,N
1556741735.9,286047001.2,N
1556741755.8,286046998.8,N
1556741775.6,286047001.2,N
1556741795.4,286047000.0,N
1556741815.3,286047000.0,N
1556741835.1,286047000.7,N
1556741855.9,286046998.6,N
1556741875.7,286046997.5,N
1556741895.5,286046996.7,N
1556741915.4,286046996.8,N
1556741935.2,286046999.5,N
1556741955.0,286046998.1,N
1556741956.0,286046998.1,N
1556741975.8,286047000.4,N
1556741995.6,286046999.9,N
1556742015.5,286047000.2,N
1556742035.3,286047001.4,N
1556742055.1,286047000.9,N
1556742075.9,286047001.2,N
1556742095.7,286047001.1,N
1556742115.5,286047001.6,N
1556742135.4,286046999.8,N
1556742155.2,286047000.2,N
1556742175.1,286047000.4,N
1556742176.0,286047000.4,N
1556742195.8,286046999.3,N
1556742215.6,286046996.6,N
1556742235.5,286046997.1,N
1556742255.3,286046997.4,N
1556742275.2,286046997.4,N
1556742295.9,286046999.2,N
1556742315.7,286046998.4,N
1556742335.6,286046998.7,N
1556742355.4,286046998.9,N
1556742375.3,286046998.4,N
1556742395.1,286047000.7,N
1556742396.0,286047000.7,N
1556742415.8,286047000.7,N
1556742435.7,286047000.7,N
1556742455.5,286047000.5,N
1556742475.3,286047002.7,N
1556742495.2,286047000.7,N
1556742515.0,286047000.9,N
1556742515.9,286047000.9,N
1556742535.8,286047001.1,N
1556742555.6,286046998.6,N
1556742575.4,286046998.6,N
1556742595.3,286046999.9,N
1556742615.1,286047002.2,N
1556742635.8,286047003.4,N
1556742655.7,286047005.8,Y
1556742675.5,286047006.0,P
1556742695.4,286047003.6,N
1556742715.2,286047004.2,N
1556742735.0,286047004.3,N
1556742735.9,286047004.3,N
1556742755.8,286047002.8,N
1556742775.6,286047001.1,N
1556742795.4,286046998.4,N
1556742815.3,286046996.7,N
1556742835.1,286046997.7,N
1556742855.9,286046997.1,N
1556742875.7,286046999.5,N
1556742895.5,286046998.4,N
1556742915.4,286046999.3,N
1556742935.2,286046997.8,N
1556742955.0,286046995.5,N
1556742955.9,286046995.5,N
1556742975.8,286046995.8,N
1556742995.6,286046995.3,N
1556743015.4,286046996.7,N
1556743035.3,286046996.7,N
1556743055.1,286046996.6,N
1556743075.9,286046997.3,N
1556743095.7,286046995.3,N
1556743115.5,286046993.5,N
1556743135.4,286046996.3,N
1556743155.2,286046995.7,N
1556743175.0,286046995.5,N
1556743175.9,286046995.5,N
1556743195.8,286046995.6,N
1556743215.6,286046996.1,N
1556743235.5,286046996.0,N
1556743255.3,286046996.2,N
1556743275.1,286046995.5,N
1556743295.9,286046995.0,N
1556743315.7,286046995.7,N
1556743335.6,286046995.7,N
1556743355.4,286046994.2,Y
1556743375.2,286046996.5,P
1556743395.1,286046997.2,P
1556743396.0,286046997.2,P
1556743415.8,286046995.3,Y
1556743435.6,286046998.1,P
1556743455.5,286046999.0,N
1556743475.3,286046998.1,N
1556743495.2,286046998.3,N
1556743515.9,286047000.2,N
1556743535.7,286047000.0,N
1556743555.6,286047002.6,N
1556743575.4,286047002.0,N
1556743595.2,286047002.5,N
1556743615.1,286047000.0,N
1556743616.0,286047000.0,N
1556743635.8,286047000.0,N
1556743655.7,286047002.5,N
1556743675.5,286047001.8,N
1556743695.3,286047002.2,N
1556743715.2,286047004.4,N
1556743735.0,286047004.0,N
1556743735.9,286047004.0,N
1556743755.7,286047004.3,N
1556743775.6,286047001.3,N
1556743795.4,286047001.8,N
1556743815.3,286047001.5,N
1556743835.1,286047001.3,N
1556743855.8,286047003.3,N
1556743875.7,286047004.3,N
1556743895.5,286047001.4,N
1556743915.4,286047001.8,N
1556743935.2,286046999.7,N
1556743955.0,286047002.7,N
1556743955.9,286047002.7,N
1556743975.8,286047002.8,N
1556743995.6,286047000.9,N
1556744015.4,286047000.7,N
1556744035.3,286047001.0,N
1556744055.1,286046999.8,N
1556744075.9,286046999.9,N
1556744095.7,286047002.2,N
1556744115.5,286047002.4,N
1556744135.4,286047000.8,N
1556744155.2,286047002.0,N
1556744175.1,286047001.4,N
1556744176.0,286047001.4,N
1556744195.8,286047001.4,N
1556744215.6,286047002.0,N
1556744235.5,286047002.5,N
1556744255.3,286047002.0,N
1556744275.1,286047002.8,N
1556744295.9,286047000.4,N
1556744315.7,286046999.9,N
1556744335.6,286047000.1,N
1556744355.4,286047002.3,N
1556744375.2,286047004.4,Y
1556744395.1,286047004.2,P
1556744396.0,286047004.2,P
